Hourly Weather Roundup
Issued by NWS Central Illinois

Home | Current Version | Previous Version | Text Only | Print | Product List | Glossary On
Versions: 1 2 3 4 5 6 7 8 9 10 11 12 13 14 15 16 17 18 19 20 21 22 23 24 25 26 27 28 29 30 31 32 33 34 35 36 37 38 39 40 41 42 43 44 45 46 47 48 49 50
462
NZUS43 KILX 072310
HWRILX

AREA WEATHER ROUNDUP
NATIONAL WEATHER SERVICE, LINCOLN IL
500 PM CST WED DEC 07 2016


CITY           SKY/WX    TMP DP  RH WIND       PRES   REMARKS
BLOOMINGTON    CLEAR     29  20  69 W14       30.19R WCI  18
CHAMPAIGN      MOCLDY    31  21  66 W13       30.19R WCI  21
DANVILLE       CLOUDY    31  23  72 W12G17    30.15S WCI  22
DECATUR        MOCLDY    31  18  58 W9        30.21R WCI  23
EFFINGHAM      CLOUDY    34  23  64 W8        30.23S WCI  28
FLORA          CLOUDY    36  23  59 NW7       30.23S WCI  30
GALESBURG      PTCLDY    25  18  74 W14       30.23R WCI  14
JACKSONVILLE   PTCLDY    31  19  61 W8        30.23S WCI  23
LACON          CLOUDY    27  17  65 W13       30.20R WCI  16
LAWRENCEVILLE  CLOUDY    35  24  64 W9        30.22R WCI  28
LITCHFIELD     PTCLDY    32  24  72 W6        30.23R WCI  26
$$


CITY           SKY/WX    TMP DP  RH WIND       PRES   REMARKS
LINCOLN        CLOUDY    31  21  66 W5        30.21S WCI  26
MACOMB         CLEAR     27  18  69 NW10      30.26R WCI  17
MATTOON        CLOUDY    32  22  66 W10       30.20R WCI  24
MT CARMEL AP   CLOUDY    35  26  68 NW7       30.21S WCI  29
OLNEY-NOBLE AP CLOUDY    34  27  75 W7        30.23S WCI  28
PARIS          CLOUDY    32  27  81 W6        30.20S WCI  26
PEORIA         PTCLDY    29  17  61 W8        30.22R WCI  21
PONTIAC        CLOUDY    31  23  74 W17       30.19R WCI  19
RANTOUL        CLOUDY    33  25  74 W10       30.18S WCI  24
SPRINGFIELD    CLEAR     32  22  66 W9        30.23R WCI  24
TAYLORVILLE    CLOUDY    32  21  64 W9        30.23R WCI  24
$$

...REGIONAL REPORTS...


CITY           SKY/WX    TMP DP  RH WIND       PRES   REMARKS
CHICAGO O`HARE CLOUDY    24  17  74 W18G24    30.11R WCI  10
KANKAKEE       MOCLDY    29  22  75 W12       30.17S WCI  19
MOLINE         PTCLDY    26  13  57 W15G25    30.20R WCI  14
MOUNT STERLING CLEAR     28  18  67 W9        30.25R WCI  19
MOUNT VERNON   NOT AVBL
PITTSFIELD     PTCLDY    32  19  58 W7        30.25R WCI  25
QUINCY         CLEAR     28  15  58 NW16      30.25R WCI  16
ROCKFORD       CLOUDY    24  16  71 W9        30.16R WCI  14
$$


CITY           SKY/WX    TMP DP  RH WIND       PRES   REMARKS
BURLINGTON     PTCLDY    27  15  61 W8        30.24R WCI  19
CEDAR RAPIDS   CLOUDY    22  17  81 W16       30.20R WCI   8
DES MOINES     MOCLDY    24   9  52 NW16G24   30.27R WCI  11
KIRKSVILLE     MOCLDY    26  13  57 W12       30.28R WCI  16
OTTUMWA        PTCLDY    24  10  55 W16       30.26R WCI  11
ST LOUIS       CLOUDY    36  17  46 W6        30.25R WCI  31
$$


CITY           SKY/WX    TMP DP  RH WIND       PRES   REMARKS
TERRE HAUTE    CLOUDY    34  21  59 W8        30.19S WCI  27
EVANSVILLE     CLOUDY    38  24  57 NW7       30.22R WCI  33
INDIANAPOLIS   CLOUDY    34  21  59 W10       30.15R WCI  26
LAFAYETTE      PTCLDY    30  23  75 W8        30.16R WCI  22
MADISON        CLOUDY    20  12  71 W8G18     30.07R WCI  10
MILWAUKEE      MOCLDY    25  14  63 W15       30.05R WCI  13
$$






USA.gov is the U.S. government's official web portal to all federal, state and local government web resources and services.